TimeCST,TemperatureF,Dew PointF,Humidity,Sea Level PressureIn,VisibilityMPH,Wind Direction,Wind SpeedMPH,Gust SpeedMPH,PrecipitationIn,Events,Conditions,WindDirDegrees,DateUTC
12:15 AM,21.2,19.4,93,29.95,7.0,NW,5.8,-,N/A,,Scattered Clouds,320,2012-12-29 06:15:00
12:35 AM,21.2,19.4,93,29.95,7.0,NW,8.1,-,N/A,,Scattered Clouds,320,2012-12-29 06:35:00
12:55 AM,21.2,19.4,93,29.95,10.0,NW,10.4,-,N/A,,Clear,320,2012-12-29 06:55:00
1:15 AM,21.2,19.4,93,29.94,7.0,NW,10.4,17.3,N/A,,Clear,320,2012-12-29 07:15:00
1:35 AM,21.2,19.4,93,29.94,10.0,NW,8.1,-,N/A,,Clear,320,2012-12-29 07:35:00
1:55 AM,21.2,19.4,93,29.95,10.0,NW,9.2,-,N/A,,Clear,320,2012-12-29 07:55:00
2:15 AM,21.2,19.4,93,29.96,10.0,NW,10.4,-,N/A,,Clear,320,2012-12-29 08:15:00
2:35 AM,23.0,19.4,86,29.97,10.0,NW,9.2,-,N/A,,Clear,320,2012-12-29 08:35:00
2:55 AM,23.0,19.4,86,29.97,10.0,NW,9.2,-,N/A,,Scattered Clouds,310,2012-12-29 08:55:00
3:15 AM,23.0,21.2,93,29.97,7.0,NW,11.5,-,N/A,,Mostly Cloudy,310,2012-12-29 09:15:00
3:35 AM,23.0,19.4,86,29.97,7.0,NW,10.4,-,N/A,Snow,Light Snow,310,2012-12-29 09:35:00
3:55 AM,23.0,19.4,86,29.97,7.0,NW,15.0,-,N/A,Snow,Light Snow,310,2012-12-29 09:55:00
4:15 AM,21.2,19.4,93,29.99,7.0,NW,13.8,18.4,N/A,Snow,Light Snow,310,2012-12-29 10:15:00
4:35 AM,21.2,19.4,93,29.99,7.0,NW,15.0,-,N/A,Snow,Light Snow,310,2012-12-29 10:35:00
4:55 AM,21.2,19.4,93,29.99,5.0,NW,13.8,20.7,N/A,Snow,Light Snow,310,2012-12-29 10:55:00
5:15 AM,21.2,19.4,93,29.99,7.0,NW,15.0,18.4,N/A,Snow,Light Snow,310,2012-12-29 11:15:00
5:35 AM,21.2,17.6,86,30.00,5.0,NW,15.0,-,N/A,Snow,Light Snow,310,2012-12-29 11:35:00
5:55 AM,21.2,17.6,86,30.01,5.0,NW,16.1,20.7,N/A,Snow,Light Snow,310,2012-12-29 11:55:00
6:15 AM,21.2,17.6,86,30.02,7.0,NW,18.4,-,N/A,Snow,Light Snow,310,2012-12-29 12:15:00
6:35 AM,21.2,17.6,86,30.02,7.0,NW,17.3,21.9,N/A,Snow,Light Snow,320,2012-12-29 12:35:00
7:15 AM,21.2,17.6,86,30.03,7.0,NW,13.8,-,N/A,Snow,Light Snow,320,2012-12-29 13:15:00
7:35 AM,21.2,17.6,86,30.04,7.0,NW,17.3,-,N/A,,Overcast,320,2012-12-29 13:35:00
7:55 AM,21.2,17.6,86,30.04,5.0,NW,17.3,23.0,N/A,,Overcast,320,2012-12-29 13:55:00
8:15 AM,19.4,17.6,93,30.05,5.0,NW,15.0,-,N/A,,Overcast,310,2012-12-29 14:15:00
8:35 AM,19.4,17.6,93,30.06,5.0,NW,13.8,19.6,N/A,,Overcast,310,2012-12-29 14:35:00
8:55 AM,19.4,17.6,93,30.06,7.0,NW,11.5,17.3,N/A,,Overcast,320,2012-12-29 14:55:00
9:15 AM,19.4,17.6,93,30.06,7.0,NW,15.0,20.7,N/A,,Overcast,310,2012-12-29 15:15:00
9:35 AM,19.4,17.6,93,30.07,7.0,NW,12.7,-,N/A,,Overcast,320,2012-12-29 15:35:00
9:55 AM,21.2,15.8,80,30.08,10.0,NW,13.8,-,N/A,,Overcast,310,2012-12-29 15:55:00
10:15 AM,21.2,15.8,80,30.09,10.0,NW,16.1,21.9,N/A,Snow,Light Snow,320,2012-12-29 16:15:00
10:35 AM,21.2,15.8,80,30.09,7.0,NW,15.0,19.6,N/A,Snow,Light Snow,320,2012-12-29 16:35:00
10:55 AM,21.2,15.8,80,30.09,5.0,NW,16.1,-,N/A,Snow,Light Snow,310,2012-12-29 16:55:00
11:15 AM,19.4,15.8,86,30.09,7.0,NW,15.0,18.4,N/A,Snow,Light Snow,310,2012-12-29 17:15:00
11:35 AM,21.2,15.8,80,30.09,7.0,NW,13.8,-,N/A,Snow,Light Snow,310,2012-12-29 17:35:00
11:55 AM,19.4,14.0,80,30.09,10.0,WNW,12.7,-,N/A,Snow,Light Snow,300,2012-12-29 17:55:00
12:15 PM,21.2,14.0,74,30.09,7.0,NW,13.8,18.4,N/A,,Overcast,310,2012-12-29 18:15:00
12:35 PM,21.2,14.0,74,30.09,5.0,WNW,13.8,-,N/A,Snow,Light Snow,290,2012-12-29 18:35:00
12:55 PM,21.2,14.0,74,30.09,10.0,WNW,16.1,-,N/A,,Overcast,290,2012-12-29 18:55:00
1:15 PM,19.4,14.0,80,30.09,7.0,WNW,12.7,-,N/A,,Overcast,290,2012-12-29 19:15:00
1:35 PM,21.2,14.0,74,30.08,7.0,WNW,11.5,-,N/A,Snow,Light Snow,290,2012-12-29 19:35:00
1:55 PM,19.4,14.0,80,30.08,10.0,WNW,12.7,-,N/A,,Overcast,300,2012-12-29 19:55:00
2:15 PM,19.4,14.0,80,30.09,7.0,WNW,12.7,-,N/A,,Overcast,290,2012-12-29 20:15:00
2:35 PM,19.4,14.0,80,30.10,10.0,West,11.5,-,N/A,,Mostly Cloudy,270,2012-12-29 20:35:00
2:55 PM,19.4,12.2,74,30.10,10.0,West,11.5,-,N/A,,Mostly Cloudy,270,2012-12-29 20:55:00
3:15 PM,19.4,12.2,74,30.11,10.0,WNW,8.1,-,N/A,,Scattered Clouds,290,2012-12-29 21:15:00
3:35 PM,19.4,12.2,74,30.12,10.0,West,8.1,-,N/A,,Clear,280,2012-12-29 21:35:00
3:55 PM,17.6,12.2,79,30.12,10.0,West,8.1,-,N/A,,Clear,280,2012-12-29 21:55:00
4:15 PM,17.6,10.4,73,30.13,10.0,West,4.6,-,N/A,,Clear,280,2012-12-29 22:15:00
4:35 PM,14.0,10.4,86,30.14,10.0,West,6.9,-,N/A,,Clear,260,2012-12-29 22:35:00
4:55 PM,12.2,8.6,85,30.14,10.0,WSW,6.9,-,N/A,,Clear,250,2012-12-29 22:55:00
5:15 PM,12.2,8.6,85,30.14,7.0,WSW,4.6,-,N/A,,Clear,250,2012-12-29 23:15:00
5:35 PM,12.2,8.6,85,30.14,10.0,Calm,Calm,-,N/A,,Clear,0,2012-12-29 23:35:00
5:55 PM,12.2,8.6,85,30.14,7.0,WSW,5.8,-,N/A,,Clear,250,2012-12-29 23:55:00
6:15 PM,10.4,5.0,79,30.15,7.0,SW,5.8,-,N/A,,Clear,230,2012-12-30 00:15:00
6:35 PM,10.4,5.0,79,30.15,7.0,WSW,4.6,-,N/A,,Clear,240,2012-12-30 00:35:00
6:55 PM,12.2,8.6,85,30.16,7.0,WSW,8.1,-,N/A,,Clear,240,2012-12-30 00:55:00
7:35 PM,10.4,6.8,85,30.16,10.0,WSW,4.6,-,N/A,,Clear,250,2012-12-30 01:35:00
7:55 PM,8.6,5.0,85,30.17,10.0,WSW,4.6,-,N/A,,Clear,240,2012-12-30 01:55:00
8:15 PM,10.4,6.8,85,30.17,10.0,WSW,5.8,-,N/A,,Clear,250,2012-12-30 02:15:00
8:35 PM,8.6,6.8,92,30.17,10.0,WSW,4.6,-,N/A,,Clear,250,2012-12-30 02:35:00
8:55 PM,10.4,6.8,85,30.18,10.0,WSW,4.6,-,N/A,,Clear,250,2012-12-30 02:55:00
9:15 PM,6.8,3.2,85,30.16,7.0,SW,5.8,-,N/A,,Clear,230,2012-12-30 03:15:00
9:35 PM,8.6,5.0,85,30.17,7.0,WSW,3.5,-,N/A,,Clear,240,2012-12-30 03:35:00
9:55 PM,8.6,5.0,85,30.18,7.0,WSW,4.6,-,N/A,,Clear,240,2012-12-30 03:55:00
10:15 PM,6.8,3.2,85,30.18,7.0,West,3.5,-,N/A,,Clear,260,2012-12-30 04:15:00
10:35 PM,8.6,5.0,85,30.19,7.0,WSW,5.8,-,N/A,,Clear,250,2012-12-30 04:35:00
10:55 PM,6.8,3.2,85,30.20,7.0,West,4.6,-,N/A,,Clear,260,2012-12-30 04:55:00
11:15 PM,6.8,3.2,85,30.20,7.0,WSW,4.6,-,N/A,,Clear,250,2012-12-30 05:15:00
11:35 PM,5.0,3.2,92,30.19,7.0,West,3.5,-,N/A,,Clear,260,2012-12-30 05:35:00
11:55 PM,6.8,3.2,85,30.19,5.0,Calm,Calm,-,N/A,,Clear,0,2012-12-30 05:55:00